Home > Weather > Oran > Past weeks

Flag for Algeria Past Weather in Oran, Algeria — Yesterday and Last 2 Weeks

Now
63 °F

Passing clouds.


Feels Like: 63 °F
Forecast: 65 / 80 °F
Wind: 9 mph from Northeast

Location: Oran / Es Senia

Current Time: Jun 1, 2016 at 4:47:35 AM

Latest Report: Jun 1, 2016 at 4:00 AM


Visibility: 4 mi

Pressure: 30.07 "Hg

Humidity: 94%

Dew Point: 61 °F

Location of OranLocation

Past Weather in Oran — Graph

°F

Oran Temperature Yesterday

Maximum temperature yesterday: 75 °F (at 10:30 AM)
Minimum temperature yesterday: 57 °F (at 4:00 AM)
Average temperature yesterday: 68 °F

High & Low Weather Summary for the Past Weeks

 TemperatureHumidityPressure
High88 °F (May 22, 3:00 PM)100% (May 19, 5:30 AM)30.15 "Hg (May 19, 5:30 AM)
Low57 °F (May 17, 3:00 AM)20% (May 17, 12:30 PM)29.80 "Hg (May 25, 4:30 PM)
Average71 °F63%30.00 "Hg
* Reported May 17 3:00 AM — Jun 1 3:30 AM, Oran, Weather by CustomWeather, © 2016

Note: Actual official high and low records may vary slightly from our data, if they occured in-between our weather recording intervals... More about our weather records

Advertising

Oran Weather History for the Previous 24 Hours

Scroll right to see more
 ConditionsComfort  
Time TempWeatherWind HumidityBarometerVisibility
3:30 AM
Wed, Jun 1
63 °FPassing clouds.5 mph94%30.07 "Hg4 mi
3:00 AM63 °FPassing clouds.5 mph94%30.07 "HgN/A
2:30 AM63 °FPassing clouds.5 mph88%30.07 "HgN/A
2:00 AM63 °FPassing clouds.5 mph88%30.07 "HgN/A
1:30 AM63 °FClear.2 mph88%30.07 "Hg10 mi
1:00 AM64 °FClear.5 mph83%30.09 "Hg10 mi
12:30 AM64 °FClear.5 mph83%30.09 "Hg10 mi
12:00 AM66 °FClear.5 mph83%30.09 "Hg10 mi
11:30 PM
Tue, May 31
66 °FClear.5 mph83%30.09 "Hg10 mi
11:00 PM66 °FClear.5 mph83%30.09 "Hg10 mi
10:30 PM66 °FClear.2 mph83%30.07 "Hg10 mi
10:00 PM66 °FClear.5 mph83%30.07 "Hg10 mi
9:30 PM66 °FClear.2 mph78%30.07 "Hg10 mi
9:00 PM68 °FClear.5 mph78%30.07 "Hg10 mi
8:30 PM68 °FClear.7 mph78%30.04 "Hg10 mi
8:00 PM70 °FSunny.9 mph78%30.04 "Hg10 mi
7:30 PM72 °FSunny.9 mph69%30.04 "Hg10 mi
7:00 PM73 °FSunny.12 mph65%30.04 "Hg10 mi
6:30 PM72 °FSunny.12 mph69%30.01 "Hg10 mi
6:00 PM73 °FPassing clouds.12 mph65%30.01 "HgN/A
5:30 PM73 °FPassing clouds.12 mph65%30.04 "HgN/A
5:00 PM72 °FPassing clouds.16 mph69%30.04 "HgN/A
4:30 PM73 °FPassing clouds.18 mph65%30.04 "HgN/A
4:00 PM75 °FPassing clouds.18 mph61%30.01 "HgN/A
3:30 PM75 °FPassing clouds.14 mph54%30.01 "HgN/A
3:00 PM75 °FPassing clouds.17 mph47%30.01 "HgN/A
2:30 PM75 °FPassing clouds.18 mph47%30.04 "HgN/A
2:00 PM75 °FPassing clouds.18 mph44%30.04 "HgN/A
1:30 PM75 °FPassing clouds.16 mph41%30.04 "HgN/A
1:00 PM75 °FPassing clouds.16 mph41%30.04 "HgN/A
12:30 PM72 °FScattered clouds.16 mph50%30.04 "HgN/A
12:00 PM75 °FScattered clouds.14 mph47%30.04 "HgN/A
11:30 AM75 °FScattered clouds.12 mph47%30.04 "HgN/A
11:00 AM73 °FScattered clouds.9 mph50%30.04 "HgN/A
10:30 AM75 °FScattered clouds.5 mph41%30.04 "HgN/A
10:00 AM73 °FScattered clouds.5 mph44%30.04 "HgN/A
9:30 AM72 °FScattered clouds.2 mph50%30.07 "HgN/A
9:00 AM70 °FScattered clouds.No wind57%30.04 "HgN/A
8:30 AM68 °FScattered clouds.No wind69%30.04 "HgN/A
8:00 AM66 °FScattered clouds.No wind68%30.04 "HgN/A
7:30 AM64 °FScattered clouds.No wind78%30.04 "HgN/A
7:00 AM59 °FScattered clouds.No wind94%30.04 "HgN/A
6:30 AM59 °FScattered clouds.No wind88%30.04 "HgN/A
6:00 AM59 °FSprinkles. Partly sunny.No wind82%30.04 "HgN/A
5:30 AM57 °FPassing clouds.No wind88%30.04 "HgN/A
5:00 AM57 °FPassing clouds.No wind88%30.04 "HgN/A
4:30 AM57 °FPassing clouds.2 mph88%30.01 "HgN/A
4:00 AM57 °FPassing clouds.5 mph88%30.01 "HgN/A
Weather by CustomWeather, © 2016

See weather overviewHow to use our weather pages